Theta_e
332 333 334 331 332 333 333 334 333 333 335 337 338 340 341 340 335 330 331 331 330 328 326 325 326 328 331 332 332 332 331 332 332 332 333 332 332 332 333 332 331 332 332
325 327 331 334 331 332 331 331 330 332 335 336 337 340 341 338 332 330 331 331 330 329 327 327 327 328 329 333 334 331 331 331 332 333 333 332 332 332 331 331 331 331 331
324 324 327 334 332 332 331 329 329 333 334 334 336 339 341 338 332 332 331 331 330 328 326 326 328 329 331 334 333 331 330 331 333 333 333 333 332 332 332 331 331 331 331
322 322 323 329 332 332 331 329 331 333 331 330 331 336 339 338 336 334 332 331 330 327 326 327 328 330 332 333 331 330 330 331 332 332 332 331 331 330 330 330 329 329 330
321 321 321 324 331 333 332 329 330 331 330 329 330 334 338 338 338 334 333 331 329 329 329 328 328 331 330 331 329 329 329 330 331 331 331 330 330 330 330 329 329 328 329
323 323 323 323 328 333 333 331 329 329 328 328 330 335 338 337 336 335 334 331 326 327 328 328 331 330 330 330 329 329 329 329 329 329 329 326 328 328 325 325 324 326 326
324 323 323 323 329 333 334 332 330 329 328 328 329 331 333 336 334 333 331 324 325 328 326 327 329 328 328 329 329 328 327 328 327 326 324 325 324 323 319 316 315 316 317
324 324 325 324 330 336 335 334 333 330 329 329 328 330 333 327 333 329 322 319 321 325 328 328 328 327 327 328 327 327 327 326 325 323 322 323 324 322 318 315 311 312 311
326 327 327 327 332 335 337 335 334 333 332 331 331 333 331 328 324 323 326 329 330 329 328 328 325 326 326 326 326 326 325 324 323 323 322 322 323 320 320 312 313 312 308
328 326 324 326 336 337 333 333 335 334 333 333 333 330 330 327 326 323 328 331 330 328 327 324 325 325 325 325 325 323 321 322 322 322 322 318 318 317 315 314 313 311 310
328 325 324 327 335 334 335 333 333 334 334 334 332 326 327 326 327 326 329 330 329 327 324 325 326 326 324 324 324 322 322 322 322 320 316 319 321 319 317 314 314 311 308
327 325 324 328 329 331 332 331 331 332 334 333 331 326 325 327 327 325 324 327 327 327 325 325 325 324 324 323 324 323 321 320 318 317 313 319 321 318 320 313 308 307 309
327 323 325 328 329 330 331 331 331 331 331 332 329 327 325 325 326 326 325 326 326 327 325 325 325 324 323 322 323 321 320 319 314 315 314 319 320 316 316 314 311 310 309
326 325 322 327 329 329 329 331 330 330 332 332 330 325 327 327 327 325 325 324 325 325 324 325 325 325 323 322 322 321 317 311 310 310 314 319 318 318 319 317 315 307 306
327 325 322 325 328 329 329 330 329 329 331 331 329 328 329 329 326 326 324 326 324 324 325 325 324 323 322 322 321 320 318 316 308 309 314 318 318 319 320 316 312 307 305
327 326 322 324 326 328 327 328 329 329 330 329 330 329 329 327 327 326 325 324 322 324 324 324 323 322 321 321 321 319 319 319 314 308 311 315 316 319 318 316 309 306 305
327 326 325 325 326 326 326 327 327 328 327 328 330 329 328 326 325 325 325 323 324 324 324 322 322 321 321 321 320 319 320 319 317 310 308 308 314 312 312 307 306 306 306
328 326 326 324 326 326 327 326 327 327 327 329 328 329 328 325 325 325 324 323 325 323 324 322 321 321 321 320 320 320 320 320 318 314 310 308 308 309 308 306 306 306 307
328 327 326 324 325 326 326 326 326 327 326 327 328 328 327 326 326 325 325 324 325 320 324 322 321 320 320 320 319 320 320 320 319 317 313 310 308 308 307 306 307 307 308
328 328 327 326 323 325 326 325 326 326 325 325 326 324 326 325 325 326 326 324 323 317 323 322 320 319 320 320 320 320 320 320 319 318 314 312 311 308 307 307 308 308 308
329 328 327 326 322 325 325 326 326 325 328 326 326 327 327 325 325 325 325 325 319 314 315 317 319 319 319 321 321 320 320 320 319 318 314 313 311 311 308 308 309 309 309
328 328 328 326 321 326 327 326 326 325 328 325 328 326 327 325 326 325 324 325 317 312 314 316 317 317 319 320 321 321 320 319 319 319 318 317 314 313 312 311 311 311 312
328 328 328 326 322 324 328 326 325 324 325 326 326 326 327 324 324 322 324 324 316 311 310 313 317 317 319 320 320 321 319 320 319 320 320 320 320 319 319 319 318 317 316
328 328 328 326 323 321 329 324 324 324 325 325 325 325 327 326 325 324 322 322 321 312 310 309 313 313 319 320 321 321 320 319 319 320 320 320 320 320 319 318 318 318 317
327 328 328 326 324 320 328 324 324 324 324 325 324 324 326 326 326 325 322 319 324 320 311 307 307 311 319 320 319 320 321 320 319 316 312 311 311 315 314 314 316 315 315
327 328 328 326 325 319 322 325 323 323 323 324 324 324 323 325 324 325 324 324 322 322 314 308 308 311 319 318 317 317 319 320 319 315 313 312 313 315 316 316 316 316 315
Wind_Speed
15 14 12 12 15 18 20 21 22 22 23 24 25 25 25 26 23 26 26 25 24 24 24 24 24 22 20 17 19 19 19 20 21 21 22 22 22 23 23 22 23 23 22
14 12 12 14 17 20 21 21 22 22 23 24 24 25 26 25 27 27 26 26 25 25 25 24 22 21 18 21 21 20 20 22 23 23 24 24 23 23 23 23 24 24 23
11 10 12 16 19 22 23 23 23 23 24 24 25 27 28 27 28 27 26 26 26 24 24 23 22 21 21 22 22 20 22 24 26 25 26 25 25 24 23 23 24 23 23
9 8 9 13 18 23 24 24 24 24 24 24 25 27 30 29 28 26 26 26 25 24 23 23 23 22 24 24 22 18 22 23 23 24 25 26 23 21 22 18 18 18 19
11 10 9 11 17 23 25 25 24 24 23 23 26 27 31 31 29 29 27 25 23 21 21 23 25 26 24 24 21 20 22 22 21 22 22 23 22 20 20 19 18 19 19
11 10 10 9 14 23 26 26 26 26 24 25 25 30 33 32 32 30 28 25 22 21 21 23 26 26 23 24 23 20 22 21 22 21 19 20 19 18 18 18 18 18 19
11 9 8 8 13 19 26 27 27 26 26 26 27 29 31 31 31 30 29 26 24 24 23 24 25 25 22 24 22 22 21 21 20 19 18 19 19 17 15 15 16 17 17
9 9 9 11 15 17 22 27 26 26 27 26 28 31 32 28 27 27 28 26 23 24 27 27 26 25 24 24 23 21 20 18 17 16 18 20 18 17 15 16 17 16 16
11 10 8 12 17 16 16 20 23 24 23 24 26 26 29 25 26 21 20 24 27 28 27 27 28 28 25 24 22 19 17 16 16 17 19 21 19 18 18 16 18 18 18
13 10 8 10 17 18 17 18 22 25 27 26 24 25 21 24 25 24 25 27 27 27 27 29 30 28 26 23 20 17 15 15 14 16 17 17 19 18 17 18 18 18 18
15 12 9 9 17 17 14 15 19 22 24 25 28 32 26 32 23 27 26 24 27 26 28 31 30 28 25 22 19 17 15 12 12 14 18 18 19 18 19 19 19 18 18
17 12 10 10 13 16 16 18 18 18 20 20 35 29 26 24 26 30 28 23 25 24 31 30 29 27 24 21 20 17 12 11 11 16 17 20 20 18 19 19 18 18 18
15 13 10 12 14 16 19 20 23 22 23 27 33 31 40 32 28 27 27 26 25 25 33 33 31 27 24 21 21 17 11 11 11 16 17 21 20 18 18 18 19 18 16
18 13 12 12 15 16 17 21 22 24 25 23 24 34 36 37 34 31 33 30 27 30 37 37 33 28 23 22 19 15 9 11 13 15 17 19 19 18 17 17 16 16 16
20 16 12 12 15 15 15 18 21 23 22 21 25 30 40 36 36 29 36 31 30 33 40 37 31 27 24 23 20 14 11 10 13 15 17 19 18 18 17 16 15 15 14
22 17 13 13 13 14 13 16 19 19 20 20 25 32 36 36 32 40 36 33 32 38 40 36 32 28 25 25 21 16 13 9 11 14 16 18 19 18 17 16 14 14 13
22 16 15 14 12 11 12 15 17 19 20 22 30 33 36 36 34 34 34 35 34 41 40 35 31 29 27 26 20 18 13 10 9 14 14 14 17 16 16 15 14 13 12
22 19 15 14 13 13 16 14 15 18 20 21 24 30 36 37 36 36 37 37 35 42 41 37 33 30 29 24 22 19 15 11 10 11 14 14 15 15 15 15 14 13 11
23 18 17 15 15 16 16 17 16 16 17 18 22 26 30 35 38 37 41 38 34 40 41 38 34 32 29 26 20 19 17 13 11 10 13 15 15 16 15 15 13 12 11
25 20 18 15 16 17 17 15 16 15 17 17 16 21 27 37 36 40 35 36 34 40 42 40 38 34 31 25 22 22 18 14 13 10 12 15 15 16 16 16 15 14 12
27 24 20 18 17 19 20 20 19 15 16 15 11 11 25 43 43 34 34 36 36 42 44 43 40 36 29 26 25 24 21 18 16 14 13 15 16 17 17 17 16 15 14
32 27 23 19 17 20 20 19 19 18 17 14 14 16 20 20 27 25 30 33 36 37 40 42 42 39 33 29 30 26 21 20 20 18 15 15 15 15 16 17 17 18 17
37 31 25 20 17 19 21 19 18 18 17 15 16 22 24 28 28 32 31 33 33 37 40 43 46 46 42 33 30 22 14 10 22 20 18 17 17 17 18 18 19 19 19
38 33 26 21 18 18 23 20 19 18 20 20 20 21 25 31 27 33 35 37 31 34 35 40 43 43 41 37 31 30 24 14 17 13 21 20 20 22 22 23 24 23 24
38 33 28 22 18 19 22 22 20 21 18 18 19 21 27 28 30 27 33 36 36 36 37 37 39 45 39 38 36 31 27 23 18 16 15 17 24 28 24 27 28 27 27
37 33 30 25 19 18 21 23 24 22 23 22 21 22 25 26 30 31 28 38 33 34 37 37 35 40 42 37 35 34 33 30 25 21 22 28 29 22 20 24 32 32 29
Wind_Direction
174 182 194 207 214 202 195 192 193 194 194 189 184 185 186 184 182 173 167 166 164 161 160 159 159 157 151 152 151 143 137 136 138 138 135 132 132 128 124 124 122 119 119
162 178 190 200 207 203 201 196 195 192 188 185 184 184 186 186 182 175 172 169 167 165 165 166 167 164 158 150 149 142 140 141 139 137 134 133 130 129 126 124 122 120 118
158 175 188 196 204 205 205 200 198 194 189 186 185 186 187 187 182 180 177 174 173 172 170 169 171 171 161 156 151 148 147 148 144 141 137 132 128 128 126 126 121 118 117
166 168 185 198 207 209 207 205 198 193 191 187 184 187 187 187 185 185 182 179 180 180 175 171 169 168 163 163 161 157 154 155 151 147 140 133 133 135 134 132 130 127 125
170 167 169 192 208 213 214 209 202 197 194 192 190 188 188 186 188 187 185 186 184 178 167 168 168 168 168 166 165 164 166 164 161 157 154 148 148 149 146 145 140 138 133
177 173 177 187 205 213 216 216 209 203 201 199 193 187 187 189 190 189 192 189 183 175 170 169 172 172 170 169 168 174 172 172 170 171 175 163 155 161 161 160 155 151 153
189 187 196 206 210 212 217 218 217 210 204 202 200 198 196 193 195 195 194 188 178 172 175 176 178 174 173 170 173 175 174 175 176 178 178 169 165 158 153 160 161 164 163
207 214 218 218 218 214 218 220 219 219 213 207 204 201 194 195 198 193 190 184 177 176 177 177 176 175 173 172 175 175 175 178 180 181 181 168 150 147 152 157 160 157 156
213 230 235 228 224 218 213 220 220 220 217 215 205 201 189 193 189 185 189 178 169 174 176 176 179 171 169 172 175 174 177 180 185 190 184 160 147 146 145 147 145 144 145
219 228 228 232 222 224 224 224 214 216 217 206 184 192 181 174 180 190 199 182 175 173 175 182 176 168 169 170 175 173 172 181 186 188 185 160 149 147 151 145 145 143 143
220 227 241 238 218 224 223 224 225 223 225 216 221 204 228 239 202 179 186 185 180 180 181 181 172 169 168 171 171 171 169 174 187 195 175 155 150 148 147 147 145 146 146
221 228 238 223 213 215 217 221 233 232 230 216 199 210 189 188 190 193 186 189 188 184 185 178 176 171 170 170 169 174 174 181 190 186 174 156 148 150 151 149 148 147 145
232 230 228 224 214 214 217 218 225 221 230 208 211 227 209 203 204 185 187 183 190 191 185 181 178 178 180 180 172 176 179 190 182 180 169 152 153 153 155 152 151 149 151
229 231 235 226 224 221 219 220 222 231 230 229 223 211 211 194 199 195 208 193 190 191 186 185 183 182 183 183 175 175 171 176 170 169 166 156 156 159 160 158 160 154 154
231 230 232 233 229 224 223 215 221 228 229 231 216 207 199 203 199 203 193 188 192 196 189 187 185 185 184 182 179 177 159 156 169 170 165 161 161 166 164 163 162 159 155
232 229 232 231 225 223 218 215 220 226 228 227 218 209 199 194 197 195 187 190 194 194 192 190 187 185 185 184 177 175 167 155 169 172 171 169 169 173 170 172 167 163 162
228 227 230 223 220 217 208 219 222 222 222 222 212 201 201 199 193 193 197 192 195 193 193 193 190 189 183 182 183 178 178 166 170 179 182 182 177 179 179 174 171 168 166
221 225 223 224 225 208 206 214 223 222 217 217 218 217 208 206 210 216 204 197 195 193 194 197 192 186 182 187 187 180 183 180 184 184 191 189 188 190 186 184 180 180 179
223 222 220 224 225 214 209 210 222 216 216 217 223 216 212 212 210 210 206 198 197 193 194 196 193 192 189 191 190 187 185 189 194 200 203 200 197 197 195 191 188 191 194
220 220 220 227 224 216 197 202 218 220 216 220 228 230 220 203 205 203 200 201 197 193 196 197 196 193 194 193 191 189 191 196 203 213 217 209 207 204 200 200 200 203 208
217 217 221 230 222 204 195 205 213 211 204 211 214 215 209 205 204 201 202 201 200 196 196 197 198 195 189 192 187 187 198 202 205 214 214 215 214 213 210 209 213 218 224
217 215 220 230 224 211 204 207 217 212 201 206 192 196 181 186 187 201 198 200 201 196 196 197 199 194 195 194 189 187 191 202 209 214 217 222 221 221 221 224 228 231 237
214 215 217 226 226 212 203 211 219 206 209 211 203 203 189 180 188 199 199 204 203 200 200 200 200 203 198 191 197 192 170 198 207 214 216 228 233 233 234 237 241 243 246
215 213 215 221 225 217 206 209 226 216 206 211 204 206 211 205 201 203 200 206 207 206 208 206 205 207 207 197 196 208 211 211 192 205 218 230 243 248 248 247 248 250 253
213 211 211 215 223 225 209 211 219 221 223 218 224 217 221 222 221 219 212 204 209 209 209 209 207 205 208 213 209 207 214 217 216 211 203 232 240 254 254 256 253 251 253
213 209 209 212 220 228 218 213 215 220 223 228 230 236 242 234 229 225 223 209 206 211 208 212 210 209 208 219 228 225 220 218 219 232 230 222 250 255 272 274 258 255 257